Location: Mountain View
(37.3861°N, 122.0839°W)
Time: 23:08:37
(UTC-07:00)

ARIANE 6 FM1 Upper Stage - Pass Details

Date: 12 May 2026
Orbit: 528 x 599 km, 62.0° (Epoch: 8 June)

Event Time Altitude Azimuth Distance (km) Brightness Sun altitude
Rises 20:46:59 0° 305° (NW) 2,664 8.6 -7.7°
Reaches altitude 10° 20:49:57 10° 281° (WNW) 1,771 6.6 -8.2°
Maximum altitude 20:52:11 15° 247° (WSW) 1,494 5.3 -8.6°
Drops below altitude 10° 20:54:26 10° 212° (SSW) 1,772 5.2 -9.0°
Sets 20:57:25 0° 188° (S) 2,666 5.9 -9.5°
